owner,sensor,date,latitude,longitude,vertical_datum,direction_of_sea_water_velocity,sea_water_speed,upward_sea_water_velocity,qcFlag 
TABS,ioos:station:wmo:42044:1,2010-11-01T00:00:00Z,26.1914,-97.0507,2.0,94.99040778,30.00373643,-99999.0,'11111222,11111222,99999999' 
TABS,ioos:station:wmo:42044:1,2010-11-01T00:30:00Z,26.1914,-97.0507,2.0,96.0069929,30.00475296,-99999.0,'11111222,11111222,99999999' 
TABS,ioos:station:wmo:42044:1,2010-11-01T01:00:00Z,26.1914,-97.0507,2.0,35.02500184,10.00118493,-99999.0,'11111222,11111222,99999999' 
TABS,ioos:station:wmo:42044:1,2010-11-01T01:30:00Z,26.1914,-97.0507,2.0,104.9956818,30.99554807,-99999.0,'11111222,11111222,99999999' 
TABS,ioos:station:wmo:42044:1,2010-11-01T02:00:00Z,26.1914,-97.0507,2.0,107.003906,28.99764301,-99999.0,'11111222,11111222,99999999' 
TABS,ioos:station:wmo:42044:1,2010-11-01T02:30:00Z,26.1914,-97.0507,2.0,115.9907266,29.00325844,-99999.0,'11111222,11111222,99999999' 
TABS,ioos:station:wmo:42044:1,2010-11-01T03:00:00Z,26.1914,-97.0507,2.0,106.9973791,30.00048333,-99999.0,'11111222,11111222,99999999' 
TABS,ioos:station:wmo:42044:1,2010-11-01T03:30:00Z,26.1914,-97.0507,2.0,110.9977382,28.99546516,-99999.0,'11111222,11111222,99999999' 
TABS,ioos:station:wmo:42044:1,2010-11-01T04:00:00Z,26.1914,-97.0507,2.0,116.99539,25.00441761,-99999.0,'11111222,11111222,99999999' 
TABS,ioos:station:wmo:42044:1,2010-11-01T04:30:00Z,26.1914,-97.0507,2.0,41.0010849,44.00432933,-99999.0,'11111222,11111222,99999999' 
TABS,ioos:station:wmo:42044:1,2010-11-01T06:30:00Z,26.1914,-97.0507,2.0,108.004687,24.00552645,-99999.0,'11111222,11111222,99999999' 
TABS,ioos:station:wmo:42044:1,2010-11-01T07:00:00Z,26.1914,-97.0507,2.0,134.9998948,23.99920415,-99999.0,'11111222,11111222,99999999' 
TABS,ioos:station:wmo:42044:1,2010-11-01T07:30:00Z,26.1914,-97.0507,2.0,129.0090772,21.00263793,-99999.0,'11111222,11111222,99999999' 
TABS,ioos:station:wmo:42044:1,2010-11-01T08:00:00Z,26.1914,-97.0507,2.0,161.0012063,18.00055555,-99999.0,'11111222,11111222,99999999' 
TABS,ioos:station:wmo:42044:1,2010-11-01T08:30:00Z,26.1914,-97.0507,2.0,129.0090772,21.00263793,-99999.0,'11111222,11111222,99999999' 
TABS,ioos:station:wmo:42044:1,2010-11-01T09:00:00Z,26.1914,-97.0507,2.0,122.9985642,19.99562452,-99999.0,'11111222,11111222,99999999' 
TABS,ioos:station:wmo:42044:1,2010-11-01T09:30:00Z,26.1914,-97.0507,2.0,134.9998948,18.00293865,-99999.0,'11111222,11111222,99999999' 
TABS,ioos:station:wmo:42044:1,2010-11-01T10:00:00Z,26.1914,-97.0507,2.0,126.0104412,20.00224987,-99999.0,'11111222,11111222,99999999' 
TABS,ioos:station:wmo:42044:1,2010-11-01T10:30:00Z,26.1914,-97.0507,2.0,134.9998948,19.00703028,-99999.0,'11111222,11111222,99999999' 
TABS,ioos:station:wmo:42044:1,2010-11-01T11:30:00Z,26.1914,-97.0507,2.0,331.9480231,4.997059135,-99999.0,'11133222,11111222,99999999' 
TABS,ioos:station:wmo:42044:1,2010-11-01T12:00:00Z,26.1914,-97.0507,2.0,146.0086438,18.99597063,-99999.0,'11111222,11111222,99999999' 
TABS,ioos:station:wmo:42044:1,2010-11-01T12:30:00Z,26.1914,-97.0507,2.0,128.9937299,15.00230649,-99999.0,'11111222,11111222,99999999' 
TABS,ioos:station:wmo:42044:1,2010-11-01T13:00:00Z,26.1914,-97.0507,2.0,215.9939894,14.00363524,-99999.0,'11111222,11111222,99999999' 
TABS,ioos:station:wmo:42044:1,2010-11-01T13:30:00Z,26.1914,-97.0507,2.0,224.9996843,2.998132752,-99999.0,'11133222,11111222,99999999' 
TABS,ioos:station:wmo:42044:1,2010-11-01T14:00:00Z,26.1914,-97.0507,2.0,262.9883457,4.997369308,-99999.0,'11133222,11111222,99999999' 
TABS,ioos:station:wmo:42044:1,2010-11-01T14:30:00Z,26.1914,-97.0507,2.0,198.0720694,2.997899264,-99999.0,'11133222,11111222,99999999' 
TABS,ioos:station:wmo:42044:1,2010-11-01T15:00:00Z,26.1914,-97.0507,2.0,318.0178282,8.999805553,-99999.0,'11133222,11111222,99999999' 
TABS,ioos:station:wmo:42044:1,2010-11-01T15:30:00Z,26.1914,-97.0507,2.0,331.9480231,4.997059135,-99999.0,'11133222,11111222,99999999' 
TABS,ioos:station:wmo:42044:1,2010-11-01T16:00:00Z,26.1914,-97.0507,2.0,58.96615225,7.002292482,-99999.0,'11133222,11111222,99999999' 
TABS,ioos:station:wmo:42044:1,2010-11-01T16:30:00Z,26.1914,-97.0507,2.0,20.00074696,14.00463138,-99999.0,'11111222,11111222,99999999' 
TABS,ioos:station:wmo:42044:1,2010-11-01T18:00:00Z,26.1914,-97.0507,2.0,35.0015381,19.99663222,-99999.0,'11111222,11111222,99999999' 
TABS,ioos:station:wmo:42044:1,2010-11-01T18:30:00Z,26.1914,-97.0507,2.0,41.0054411,19.99606211,-99999.0,'11111222,11111222,99999999' 
TABS,ioos:station:wmo:42044:1,2010-11-01T19:00:00Z,26.1914,-97.0507,2.0,44.00267572,25.99718446,-99999.0,'11111222,11111222,99999999' 
TABS,ioos:station:wmo:42044:1,2010-11-01T19:30:00Z,26.1914,-97.0507,2.0,27.01364677,23.9982166,-99999.0,'11111222,11111222,99999999' 
TABS,ioos:station:wmo:42044:1,2010-11-01T20:00:00Z,26.1914,-97.0507,2.0,49.9873834,16.99956764,-99999.0,'11111222,11111222,99999999' 
TABS,ioos:station:wmo:42044:1,2010-11-01T20:30:00Z,26.1914,-97.0507,2.0,71.9999675,19.99881997,-99999.0,'11111222,11111222,99999999' 
TABS,ioos:station:wmo:42044:1,2010-11-01T21:00:00Z,26.1914,-97.0507,2.0,39.00928767,21.00263793,-99999.0,'11111222,11111222,99999999' 
TABS,ioos:station:wmo:42044:1,2010-11-01T21:30:00Z,26.1914,-97.0507,2.0,38.99849132,22.9938644,-99999.0,'11111222,11111222,99999999' 
TABS,ioos:station:wmo:42044:1,2010-11-01T23:00:00Z,26.1914,-97.0507,2.0,317.004632,19.00451525,-99999.0,'11111222,11111222,99999999' 
TABS,ioos:station:wmo:42044:1,2010-11-02T00:30:00Z,26.1914,-97.0507,2.0,47.00694827,20.99980952,-99999.0,'11111222,11111222,99999999' 
TABS,ioos:station:wmo:42044:1,2010-11-02T01:00:00Z,26.1914,-97.0507,2.0,51.00627009,15.00230649,-99999.0,'11111222,11111222,99999999' 
TABS,ioos:station:wmo:42044:1,2010-11-02T01:30:00Z,26.1914,-97.0507,2.0,70.99895021,16.00190614,-99999.0,'11111222,11111222,99999999' 
TABS,ioos:station:wmo:42044:1,2010-11-02T02:00:00Z,26.1914,-97.0507,2.0,51.00627009,15.00230649,-99999.0,'11111222,11111222,99999999' 
TABS,ioos:station:wmo:42044:1,2010-11-02T02:30:00Z,26.1914,-97.0507,2.0,65.99877516,14.9966663,-99999.0,'11111222,11111222,99999999' 
TABS,ioos:station:wmo:42044:1,2010-11-02T03:00:00Z,26.1914,-97.0507,2.0,65.99877516,11.99733304,-99999.0,'11111222,11111222,99999999' 
TABS,ioos:station:wmo:42044:1,2010-11-02T03:30:00Z,26.1914,-97.0507,2.0,46.99027283,10.99507162,-99999.0,'11111222,11111222,99999999' 
TABS,ioos:station:wmo:42044:1,2010-11-02T04:00:00Z,26.1914,-97.0507,2.0,53.98955881,10.00112494,-99999.0,'11111222,11111222,99999999' 
TABS,ioos:station:wmo:42044:1,2010-11-02T06:30:00Z,26.1914,-97.0507,2.0,42.01443505,10.99629483,-99999.0,'11111222,11111222,99999999' 
TABS,ioos:station:wmo:42044:1,2010-11-02T07:00:00Z,26.1914,-97.0507,2.0,38.99818657,8.994203689,-99999.0,'11133222,11111222,99999999' 
TABS,ioos:station:wmo:42044:1,2010-11-02T07:30:00Z,26.1914,-97.0507,2.0,40.9974567,8.002755775,-99999.0,'11133222,11111222,99999999' 
TABS,ioos:station:wmo:42044:1,2010-11-02T08:00:00Z,26.1914,-97.0507,2.0,22.99819398,12.00410763,-99999.0,'11111222,11111222,99999999' 
TABS,ioos:station:wmo:42044:1,2010-11-02T10:00:00Z,26.1914,-97.0507,2.0,52.99269762,15.00204319,-99999.0,'11111222,11111222,99999999' 
TABS,ioos:station:wmo:42044:1,2010-11-02T10:30:00Z,26.1914,-97.0507,2.0,52.9964544,5.998016339,-99999.0,'11133222,11111222,99999999' 
TABS,ioos:station:wmo:42044:1,2010-11-02T11:00:00Z,26.1914,-97.0507,2.0,54.00431644,7.996930661,-99999.0,'11133222,11111222,99999999' 
TABS,ioos:station:wmo:42044:1,2010-11-02T11:30:00Z,26.1914,-97.0507,2.0,80.98768386,9.001122152,-99999.0,'11133222,11111222,99999999' 
TABS,ioos:station:wmo:42044:1,2010-11-02T14:00:00Z,26.1914,-97.0507,2.0,1.947512278,5.002889165,-99999.0,'11133222,11111222,99999999' 
TABS,ioos:station:wmo:42044:1,2010-11-02T14:30:00Z,26.1914,-97.0507,2.0,8.049253338,5.999099932,-99999.0,'11133222,11111222,99999999' 
TABS,ioos:station:wmo:42044:1,2010-11-02T15:00:00Z,26.1914,-97.0507,2.0,41.95892192,5.997641203,-99999.0,'11133222,11111222,99999999' 
TABS,ioos:station:wmo:42044:1,2010-11-02T15:30:00Z,26.1914,-97.0507,2.0,90.0,8.0,-99999.0,'11133222,11111222,99999999' 
TABS,ioos:station:wmo:42044:1,2010-11-02T16:00:00Z,26.1914,-97.0507,2.0,34.99736606,8.996804988,-99999.0,'11133222,11111222,99999999' 
TABS,ioos:station:wmo:42044:1,2010-11-02T17:30:00Z,26.1914,-97.0507,2.0,34.99736606,8.996804988,-99999.0,'11133222,11111222,99999999' 
TABS,ioos:station:wmo:42044:1,2010-11-02T18:00:00Z,26.1914,-97.0507,2.0,26.9922399,18.0008472,-99999.0,'11111222,11111222,99999999' 
TABS,ioos:station:wmo:42044:1,2010-11-02T18:30:00Z,26.1914,-97.0507,2.0,14.00167015,15.99522741,-99999.0,'11111222,11111222,99999999' 
TABS,ioos:station:wmo:42044:1,2010-11-02T19:00:00Z,26.1914,-97.0507,2.0,65.99877516,11.99733304,-99999.0,'11111222,11111222,99999999' 
TABS,ioos:station:wmo:42044:1,2010-11-02T19:30:00Z,26.1914,-97.0507,2.0,16.98555831,14.00072141,-99999.0,'11111222,11111222,99999999' 
TABS,ioos:station:wmo:42044:1,2010-11-03T00:30:00Z,26.1914,-97.0507,2.0,54.00882029,20.99846899,-99999.0,'11111222,11111222,99999999' 
TABS,ioos:station:wmo:42044:1,2010-11-03T01:00:00Z,26.1914,-97.0507,2.0,47.00442152,19.00451525,-99999.0,'11111222,11111222,99999999' 
TABS,ioos:station:wmo:42044:1,2010-11-03T01:30:00Z,26.1914,-97.0507,2.0,51.00467856,23.99651016,-99999.0,'11111222,11111222,99999999' 
TABS,ioos:station:wmo:42044:1,2010-11-03T02:00:00Z,26.1914,-97.0507,2.0,35.99760433,30.99959355,-99999.0,'11111222,11111222,99999999' 
TABS,ioos:station:wmo:42044:1,2010-11-03T02:30:00Z,26.1914,-97.0507,2.0,47.00025872,30.99723375,-99999.0,'11111222,11111222,99999999' 
TABS,ioos:station:wmo:42044:1,2010-11-03T03:00:00Z,26.1914,-97.0507,2.0,38.00477015,31.00408038,-99999.0,'11111222,11111222,99999999' 
TABS,ioos:station:wmo:42044:1,2010-11-03T03:30:00Z,26.1914,-97.0507,2.0,44.00162093,27.99860889,-99999.0,'11111222,11111222,99999999' 
TABS,ioos:station:wmo:42044:1,2010-11-03T04:00:00Z,26.1914,-97.0507,2.0,45.00010523,33.99769404,-99999.0,'11111222,11111222,99999999' 
TABS,ioos:station:wmo:42044:1,2010-11-03T05:00:00Z,26.1914,-97.0507,2.0,80.99552959,42.99992791,-99999.0,'11111222,11111222,99999999' 
TABS,ioos:station:wmo:42044:1,2010-11-03T06:30:00Z,26.1914,-97.0507,2.0,20.99550306,39.99530597,-99999.0,'11111222,11111222,99999999' 
TABS,ioos:station:wmo:42044:1,2010-11-03T07:00:00Z,26.1914,-97.0507,2.0,13.99886251,36.99881755,-99999.0,'11111222,11111222,99999999' 
TABS,ioos:station:wmo:42044:1,2010-11-03T07:30:00Z,26.1914,-97.0507,2.0,44.00848732,37.99853813,-99999.0,'11111222,11111222,99999999' 
TABS,ioos:station:wmo:42044:1,2010-11-03T08:00:00Z,26.1914,-97.0507,2.0,359.0010545,38.99592927,-99999.0,'11111222,11144222,99999999' 
TABS,ioos:station:wmo:42044:1,2010-11-03T08:30:00Z,26.1914,-97.0507,2.0,2.005741751,40.00450475,-99999.0,'11111222,11111222,99999999' 
TABS,ioos:station:wmo:42044:1,2010-11-03T09:00:00Z,26.1914,-97.0507,2.0,339.0058892,41.0018841,-99999.0,'11111222,11111222,99999999' 
TABS,ioos:station:wmo:42044:1,2010-11-03T09:30:00Z,26.1914,-97.0507,2.0,353.9993974,44.00110908,-99999.0,'11111222,11111222,99999999' 
TABS,ioos:station:wmo:42044:1,2010-11-03T10:00:00Z,26.1914,-97.0507,2.0,338.9992075,44.00294649,-99999.0,'11111222,11111222,99999999' 
TABS,ioos:station:wmo:42044:1,2010-11-03T10:30:00Z,26.1914,-97.0507,2.0,350.9945784,45.99700969,-99999.0,'11111222,11111222,99999999' 
TABS,ioos:station:wmo:42044:1,2010-11-03T11:00:00Z,26.1914,-97.0507,2.0,348.0004066,42.9996186,-99999.0,'11111222,11111222,99999999' 
TABS,ioos:station:wmo:42044:1,2010-11-03T11:30:00Z,26.1914,-97.0507,2.0,341.002467,47.0000383,-99999.0,'11111222,11111222,99999999' 
TABS,ioos:station:wmo:42044:1,2010-11-03T12:00:00Z,26.1914,-97.0507,2.0,323.000737,38.00209731,-99999.0,'11111222,11111222,99999999' 
TABS,ioos:station:wmo:42044:1,2010-11-03T12:30:00Z,26.1914,-97.0507,2.0,346.9964209,41.99701061,-99999.0,'11111222,11111222,99999999' 
TABS,ioos:station:wmo:42044:1,2010-11-03T13:00:00Z,26.1914,-97.0507,2.0,342.0020292,38.99834099,-99999.0,'11111222,11111222,99999999' 
TABS,ioos:station:wmo:42044:1,2010-11-03T13:30:00Z,26.1914,-97.0507,2.0,343.9954232,48.99928673,-99999.0,'11111222,11111222,99999999' 
TABS,ioos:station:wmo:42044:1,2010-11-03T14:00:00Z,26.1914,-97.0507,2.0,35.00495042,54.99913636,-99999.0,'11111222,11111222,99999999' 
TABS,ioos:station:wmo:42044:1,2010-11-03T14:30:00Z,26.1914,-97.0507,2.0,16.99964927,50.99824507,-99999.0,'11111222,11111222,99999999' 
TABS,ioos:station:wmo:42044:1,2010-11-03T15:00:00Z,26.1914,-97.0507,2.0,34.99595467,36.99979054,-99999.0,'11111222,11111222,99999999' 
TABS,ioos:station:wmo:42044:1,2010-11-03T15:30:00Z,26.1914,-97.0507,2.0,23.00681509,48.99727033,-99999.0,'11111222,11111222,99999999' 
TABS,ioos:station:wmo:42044:1,2010-11-03T16:00:00Z,26.1914,-97.0507,2.0,20.99878216,55.0027872,-99999.0,'11111222,11111222,99999999' 
TABS,ioos:station:wmo:42044:1,2010-11-03T16:30:00Z,26.1914,-97.0507,2.0,3.000177686,47.00441681,-99999.0,'11111222,11111222,99999999' 
TABS,ioos:station:wmo:42044:1,2010-11-03T17:00:00Z,26.1914,-97.0507,2.0,11.99633116,56.00301778,-99999.0,'11111222,11111222,99999999' 
TABS,ioos:station:wmo:42044:1,2010-11-03T19:00:00Z,26.1914,-97.0507,2.0,0.000210459,58.0,-99999.0,'11111222,11111222,99999999' 
TABS,ioos:station:wmo:42044:1,2010-11-03T19:30:00Z,26.1914,-97.0507,2.0,359.0055568,52.99798581,-99999.0,'11111222,11144222,99999999' 
TABS,ioos:station:wmo:42044:1,2010-11-03T20:00:00Z,26.1914,-97.0507,2.0,357.0044748,53.00243202,-99999.0,'11111222,11111222,99999999' 
TABS,ioos:station:wmo:42044:1,2010-11-03T20:30:00Z,26.1914,-97.0507,2.0,6.004917795,62.99563953,-99999.0,'11111222,11111222,99999999' 
TABS,ioos:station:wmo:42044:1,2010-11-03T21:00:00Z,26.1914,-97.0507,2.0,5.998705636,59.99851498,-99999.0,'11111222,11111222,99999999' 
TABS,ioos:station:wmo:42044:1,2010-11-03T22:30:00Z,26.1914,-97.0507,2.0,346.9984672,54.00450815,-99999.0,'11111222,11111222,99999999' 
TABS,ioos:station:wmo:42044:1,2010-11-03T23:00:00Z,26.1914,-97.0507,2.0,346.9984672,54.00450815,-99999.0,'11111222,11111222,99999999' 
TABS,ioos:station:wmo:42044:1,2010-11-03T23:30:00Z,26.1914,-97.0507,2.0,341.002332,56.00031607,-99999.0,'11111222,11111222,99999999' 
TABS,ioos:station:wmo:42044:1,2010-11-04T00:00:00Z,26.1914,-97.0507,2.0,341.003949,50.99733719,-99999.0,'11111222,11111222,99999999' 
TABS,ioos:station:wmo:42044:1,2010-11-04T00:30:00Z,26.1914,-97.0507,2.0,335.0006824,45.99967065,-99999.0,'11111222,11111222,99999999' 
TABS,ioos:station:wmo:42044:1,2010-11-04T01:30:00Z,26.1914,-97.0507,2.0,338.9989471,50.00148798,-99999.0,'11111222,11111222,99999999' 
TABS,ioos:station:wmo:42044:1,2010-11-04T02:00:00Z,26.1914,-97.0507,2.0,342.0047863,46.99915318,-99999.0,'11111222,11111222,99999999' 
TABS,ioos:station:wmo:42044:1,2010-11-04T02:30:00Z,26.1914,-97.0507,2.0,335.0054683,47.0019106,-99999.0,'11111222,11111222,99999999' 
TABS,ioos:station:wmo:42044:1,2010-11-04T03:00:00Z,26.1914,-97.0507,2.0,350.9999439,41.9970868,-99999.0,'11111222,11111222,99999999' 
TABS,ioos:station:wmo:42044:1,2010-11-04T03:30:00Z,26.1914,-97.0507,2.0,2.006075956,29.99838162,-99999.0,'11111222,11111222,99999999' 
TABS,ioos:station:wmo:42044:1,2010-11-04T04:00:00Z,26.1914,-97.0507,2.0,354.0025945,57.99746546,-99999.0,'11111222,11111222,99999999' 
TABS,ioos:station:wmo:42044:1,2010-11-04T04:30:00Z,26.1914,-97.0507,2.0,354.0012153,50.99928725,-99999.0,'11111222,11111222,99999999' 
TABS,ioos:station:wmo:42044:1,2010-11-04T06:00:00Z,26.1914,-97.0507,2.0,7.997584388,58.00412485,-99999.0,'11111222,11111222,99999999' 
TABS,ioos:station:wmo:42044:1,2010-11-04T06:30:00Z,26.1914,-97.0507,2.0,355.996244,58.00156981,-99999.0,'11111222,11111222,99999999' 
TABS,ioos:station:wmo:42044:1,2010-11-04T07:00:00Z,26.1914,-97.0507,2.0,65.99809295,56.00244638,-99999.0,'11111222,11111222,99999999' 
TABS,ioos:station:wmo:42044:1,2010-11-04T07:30:00Z,26.1914,-97.0507,2.0,0.000210459,53.0,-99999.0,'11111222,11111222,99999999' 
TABS,ioos:station:wmo:42044:1,2010-11-04T08:00:00Z,26.1914,-97.0507,2.0,201.0032386,52.00530838,-99999.0,'11111222,11111222,99999999' 
TABS,ioos:station:wmo:42044:1,2010-11-04T08:30:00Z,26.1914,-97.0507,2.0,8.00030302,47.99711762,-99999.0,'11111222,11111222,99999999' 
TABS,ioos:station:wmo:42044:1,2010-11-04T09:00:00Z,26.1914,-97.0507,2.0,15.00106827,50.9979176,-99999.0,'11111222,11111222,99999999' 
TABS,ioos:station:wmo:42044:1,2010-11-04T09:30:00Z,26.1914,-97.0507,2.0,10.99891809,51.99507669,-99999.0,'11111222,11111222,99999999' 
TABS,ioos:station:wmo:42044:1,2010-11-04T10:30:00Z,26.1914,-97.0507,2.0,1.999479351,42.99617309,-99999.0,'11111222,11111222,99999999' 
TABS,ioos:station:wmo:42044:1,2010-11-04T11:00:00Z,26.1914,-97.0507,2.0,355.9990348,43.99723855,-99999.0,'11111222,11111222,99999999' 
TABS,ioos:station:wmo:42044:1,2010-11-04T12:30:00Z,26.1914,-97.0507,2.0,297.0002832,32.9963695,-99999.0,'11111222,11111222,99999999' 
TABS,ioos:station:wmo:42044:1,2010-11-04T13:00:00Z,26.1914,-97.0507,2.0,12.00058551,13.99586367,-99999.0,'11111222,11111222,99999999' 
TABS,ioos:station:wmo:42044:1,2010-11-04T13:30:00Z,26.1914,-97.0507,2.0,296.9972969,35.00440258,-99999.0,'11111222,11111222,99999999' 
TABS,ioos:station:wmo:42044:1,2010-11-04T14:00:00Z,26.1914,-97.0507,2.0,298.9913527,27.99830352,-99999.0,'11111222,11111222,99999999' 
TABS,ioos:station:wmo:42044:1,2010-11-04T14:30:00Z,26.1914,-97.0507,2.0,304.9967604,31.99510275,-99999.0,'11111222,11111222,99999999' 
TABS,ioos:station:wmo:42044:1,2010-11-04T15:00:00Z,26.1914,-97.0507,2.0,298.9918848,29.99915332,-99999.0,'11111222,11111222,99999999' 
TABS,ioos:station:wmo:42044:1,2010-11-04T15:30:00Z,26.1914,-97.0507,2.0,304.9923593,25.99996346,-99999.0,'11111222,11111222,99999999' 
TABS,ioos:station:wmo:42044:1,2010-11-04T16:00:00Z,26.1914,-97.0507,2.0,314.0009173,30.00003333,-99999.0,'11111222,11111222,99999999' 
TABS,ioos:station:wmo:42044:1,2010-11-04T16:30:00Z,26.1914,-97.0507,2.0,309.0094981,21.00263793,-99999.0,'11111222,11111222,99999999' 
TABS,ioos:station:wmo:42044:1,2010-11-04T17:00:00Z,26.1914,-97.0507,2.0,314.0117195,24.999946,-99999.0,'11111222,11111222,99999999' 
TABS,ioos:station:wmo:42044:1,2010-11-04T17:30:00Z,26.1914,-97.0507,2.0,302.0037703,31.00175801,-99999.0,'11111222,11111222,99999999' 
TABS,ioos:station:wmo:42044:1,2010-11-04T18:00:00Z,26.1914,-97.0507,2.0,315.0003157,22.99511252,-99999.0,'11111222,11111222,99999999' 
TABS,ioos:station:wmo:42044:1,2010-11-04T18:30:00Z,26.1914,-97.0507,2.0,306.0088274,29.00127756,-99999.0,'11111222,11111222,99999999' 
TABS,ioos:station:wmo:42044:1,2010-11-04T19:00:00Z,26.1914,-97.0507,2.0,320.0039759,29.99664648,-99999.0,'11111222,11111222,99999999' 
TABS,ioos:station:wmo:42044:1,2010-11-04T19:30:00Z,26.1914,-97.0507,2.0,305.9855871,25.00097998,-99999.0,'11111222,11111222,99999999' 
TABS,ioos:station:wmo:42044:1,2010-11-04T20:00:00Z,26.1914,-97.0507,2.0,308.9987018,22.9938644,-99999.0,'11111222,11111222,99999999' 
TABS,ioos:station:wmo:42044:1,2010-11-04T20:30:00Z,26.1914,-97.0507,2.0,308.9987018,22.9938644,-99999.0,'11111222,11111222,99999999' 
TABS,ioos:station:wmo:42044:1,2010-11-04T21:00:00Z,26.1914,-97.0507,2.0,317.0106844,26.00217875,-99999.0,'11111222,11111222,99999999' 
TABS,ioos:station:wmo:42044:1,2010-11-04T22:30:00Z,26.1914,-97.0507,2.0,320.0022095,24.00577014,-99999.0,'11111222,11111222,99999999' 
TABS,ioos:station:wmo:42044:1,2010-11-04T23:00:00Z,26.1914,-97.0507,2.0,321.0019296,22.9938644,-99999.0,'11111222,11111222,99999999' 
TABS,ioos:station:wmo:42044:1,2010-11-04T23:30:00Z,26.1914,-97.0507,2.0,338.9940813,21.00602295,-99999.0,'11111222,11111222,99999999' 
TABS,ioos:station:wmo:42044:1,2010-11-05T00:00:00Z,26.1914,-97.0507,2.0,317.0082502,21.99745667,-99999.0,'11111222,11111222,99999999' 
TABS,ioos:station:wmo:42044:1,2010-11-05T00:30:00Z,26.1914,-97.0507,2.0,331.99061,21.99648381,-99999.0,'11111222,11111222,99999999' 
TABS,ioos:station:wmo:42044:1,2010-11-05T01:00:00Z,26.1914,-97.0507,2.0,335.0110629,20.00248485,-99999.0,'11111222,11111222,99999999' 
TABS,ioos:station:wmo:42044:1,2010-11-05T01:30:00Z,26.1914,-97.0507,2.0,347.0101455,18.99613119,-99999.0,'11111222,11111222,99999999' 
TABS,ioos:station:wmo:42044:1,2010-11-05T02:00:00Z,26.1914,-97.0507,2.0,338.9995501,19.0022025,-99999.0,'11111222,11111222,99999999' 
TABS,ioos:station:wmo:42044:1,2010-11-05T02:30:00Z,26.1914,-97.0507,2.0,347.9998354,13.99586367,-99999.0,'11111222,11111222,99999999' 
TABS,ioos:station:wmo:42044:1,2010-11-05T03:00:00Z,26.1914,-97.0507,2.0,338.9891914,14.00090354,-99999.0,'11111222,11111222,99999999' 
TABS,ioos:station:wmo:42044:1,2010-11-05T03:30:00Z,26.1914,-97.0507,2.0,341.9879204,15.00541569,-99999.0,'11111222,11111222,99999999' 
TABS,ioos:station:wmo:42044:1,2010-11-05T04:00:00Z,26.1914,-97.0507,2.0,334.9907911,14.00294612,-99999.0,'11111222,11111222,99999999' 
TABS,ioos:station:wmo:42044:1,2010-11-05T06:00:00Z,26.1914,-97.0507,2.0,343.9986466,14.00254263,-99999.0,'11111222,11111222,99999999' 
TABS,ioos:station:wmo:42044:1,2010-11-05T06:30:00Z,26.1914,-97.0507,2.0,342.0182253,16.00162492,-99999.0,'11111222,11111222,99999999' 
TABS,ioos:station:wmo:42044:1,2010-11-05T07:00:00Z,26.1914,-97.0507,2.0,5.992330304,15.99740604,-99999.0,'11111222,11111222,99999999' 
TABS,ioos:station:wmo:42044:1,2010-11-05T07:30:00Z,26.1914,-97.0507,2.0,345.0108153,13.99624235,-99999.0,'11111222,11111222,99999999' 
TABS,ioos:station:wmo:42044:1,2010-11-05T08:00:00Z,26.1914,-97.0507,2.0,13.98295374,12.99506445,-99999.0,'11111222,11111222,99999999' 
TABS,ioos:station:wmo:42044:1,2010-11-05T08:30:00Z,26.1914,-97.0507,2.0,14.00862118,4.99865982,-99999.0,'11133222,11111222,99999999' 
TABS,ioos:station:wmo:42044:1,2010-11-05T09:00:00Z,26.1914,-97.0507,2.0,10.99702864,13.99701754,-99999.0,'11111222,11111222,99999999' 
TABS,ioos:station:wmo:42044:1,2010-11-05T09:30:00Z,26.1914,-97.0507,2.0,3.00059348,17.0033085,-99999.0,'11111222,11111222,99999999' 
TABS,ioos:station:wmo:42044:1,2010-11-05T10:00:00Z,26.1914,-97.0507,2.0,35.00495042,10.99982727,-99999.0,'11111222,11111222,99999999' 
TABS,ioos:station:wmo:42044:1,2010-11-05T10:30:00Z,26.1914,-97.0507,2.0,291.0173209,8.002362151,-99999.0,'11133222,11111222,99999999' 
TABS,ioos:station:wmo:42044:1,2010-11-05T11:30:00Z,26.1914,-97.0507,2.0,314.0212868,12.00135409,-99999.0,'11111222,11111222,99999999' 
TABS,ioos:station:wmo:42044:1,2010-11-05T12:00:00Z,26.1914,-97.0507,2.0,302.0057293,10.00002,-99999.0,'11111222,11111222,99999999' 
TABS,ioos:station:wmo:42044:1,2010-11-05T12:30:00Z,26.1914,-97.0507,2.0,322.9830887,14.00204628,-99999.0,'11111222,11111222,99999999' 
TABS,ioos:station:wmo:42044:1,2010-11-05T13:00:00Z,26.1914,-97.0507,2.0,312.0114871,16.00238107,-99999.0,'11111222,11111222,99999999' 
TABS,ioos:station:wmo:42044:1,2010-11-05T13:30:00Z,26.1914,-97.0507,2.0,313.9881304,4.002848985,-99999.0,'11133222,11111222,99999999' 
TABS,ioos:station:wmo:42044:1,2010-11-05T14:00:00Z,26.1914,-97.0507,2.0,315.0003157,18.00293865,-99999.0,'11111222,11111222,99999999' 
TABS,ioos:station:wmo:42044:1,2010-11-05T14:30:00Z,26.1914,-97.0507,2.0,302.9841817,18.00138884,-99999.0,'11111222,11111222,99999999' 
TABS,ioos:station:wmo:42044:1,2010-11-05T15:00:00Z,26.1914,-97.0507,2.0,300.0010785,19.99956,-99999.0,'11111222,11111222,99999999' 
TABS,ioos:station:wmo:42044:1,2010-11-05T15:30:00Z,26.1914,-97.0507,2.0,309.0075404,16.99982647,-99999.0,'11111222,11111222,99999999' 
TABS,ioos:station:wmo:42044:1,2010-11-05T16:00:00Z,26.1914,-97.0507,2.0,308.0037688,17.99552167,-99999.0,'11111222,11111222,99999999' 
TABS,ioos:station:wmo:42044:1,2010-11-05T16:30:00Z,26.1914,-97.0507,2.0,314.0009173,15.00001667,-99999.0,'11111222,11111222,99999999' 
TABS,ioos:station:wmo:42044:1,2010-11-05T17:30:00Z,26.1914,-97.0507,2.0,295.996031,18.00123607,-99999.0,'11111222,11111222,99999999' 
TABS,ioos:station:wmo:42044:1,2010-11-05T18:00:00Z,26.1914,-97.0507,2.0,347.9981759,18.99523361,-99999.0,'11111222,11111222,99999999' 
TABS,ioos:station:wmo:42044:1,2010-11-05T18:30:00Z,26.1914,-97.0507,2.0,335.0110629,20.00248485,-99999.0,'11111222,11111222,99999999' 